Time,TemperatureF,DewpointF,PressureIn,WindDirection,WindDirectionDegrees,WindSpeedMPH,WindSpeedGustMPH,Humidity,HourlyPrecipIn,Conditions,Clouds,dailyrainin,SoftwareType,DateUTC
2013-01-29 00:09:00,62.2,61.0,30.17,East,86,2.0,3.0,95,0.00,,,0.00,weatherlink.com 1.10,2013-01-29 06:09:00,
2013-01-29 00:24:00,62.4,61.0,30.17,East,79,3.0,4.0,95,0.00,,,0.00,weatherlink.com 1.10,2013-01-29 06:24:00,
2013-01-29 00:39:00,62.4,61.0,30.16,ENE,76,3.0,4.0,95,0.00,,,0.00,weatherlink.com 1.10,2013-01-29 06:39:00,
2013-01-29 00:54:00,62.3,61.0,30.16,ENE,71,2.0,3.0,95,0.00,,,0.00,weatherlink.com 1.10,2013-01-29 06:54:00,
2013-01-29 01:09:00,62.4,61.0,30.16,ENE,69,1.0,2.0,95,0.00,,,0.00,weatherlink.com 1.10,2013-01-29 07:09:00,
2013-01-29 01:24:00,62.3,61.0,30.16,ENE,75,2.0,3.0,95,0.00,,,0.00,weatherlink.com 1.10,2013-01-29 07:24:00,
2013-01-29 01:39:00,62.2,61.0,30.16,East,94,2.0,2.0,95,0.00,,,0.00,weatherlink.com 1.10,2013-01-29 07:39:00,
2013-01-29 01:54:00,62.1,61.0,30.15,East,91,3.0,4.0,95,0.00,,,0.00,weatherlink.com 1.10,2013-01-29 07:54:00,
2013-01-29 02:09:00,62.0,61.0,30.15,East,96,1.0,3.0,96,0.00,,,0.00,weatherlink.com 1.10,2013-01-29 08:09:00,
2013-01-29 02:24:00,61.7,61.0,30.15,ENE,70,1.0,3.0,96,0.00,,,0.00,weatherlink.com 1.10,2013-01-29 08:24:00,
2013-01-29 02:39:00,61.6,61.0,30.15,ENE,73,2.0,3.0,96,0.00,,,0.00,weatherlink.com 1.10,2013-01-29 08:39:00,
2013-01-29 02:54:00,61.4,60.0,30.15,ENE,62,2.0,4.0,96,0.00,,,0.00,weatherlink.com 1.10,2013-01-29 08:54:00,
2013-01-29 03:09:00,61.3,61.0,30.14,East,100,0.0,3.0,97,0.00,,,0.00,weatherlink.com 1.10,2013-01-29 09:09:00,
2013-01-29 03:24:00,61.4,61.0,30.14,ENE,69,2.0,3.0,97,0.00,,,0.00,weatherlink.com 1.10,2013-01-29 09:24:00,
2013-01-29 03:39:00,61.4,60.0,30.14,East,82,2.0,3.0,96,0.00,,,0.00,weatherlink.com 1.10,2013-01-29 09:39:00,
2013-01-29 03:54:00,61.4,60.0,30.13,ENE,77,2.0,5.0,96,0.00,,,0.00,weatherlink.com 1.10,2013-01-29 09:54:00,
2013-01-29 04:09:00,61.4,61.0,30.13,East,79,2.0,4.0,97,0.00,,,0.00,weatherlink.com 1.10,2013-01-29 10:09:00,
2013-01-29 04:24:00,61.5,61.0,30.13,ENE,70,2.0,4.0,97,0.00,,,0.00,weatherlink.com 1.10,2013-01-29 10:24:00,
2013-01-29 04:39:00,61.5,61.0,30.13,East,89,3.0,5.0,97,0.00,,,0.00,weatherlink.com 1.10,2013-01-29 10:39:00,
2013-01-29 04:54:00,61.4,61.0,30.13,East,99,2.0,4.0,97,0.00,,,0.00,weatherlink.com 1.10,2013-01-29 10:54:00,
2013-01-29 05:09:00,61.3,61.0,30.12,East,94,3.0,3.0,97,0.00,,,0.00,weatherlink.com 1.10,2013-01-29 11:09:00,
2013-01-29 05:24:00,61.6,61.0,30.13,East,83,3.0,4.0,97,0.00,,,0.00,weatherlink.com 1.10,2013-01-29 11:24:00,
2013-01-29 05:39:00,61.9,61.0,30.12,East,84,5.0,6.0,97,0.00,,,0.00,weatherlink.com 1.10,2013-01-29 11:39:00,
2013-01-29 05:54:00,62.1,61.0,30.12,East,96,4.0,8.0,96,0.00,,,0.00,weatherlink.com 1.10,2013-01-29 11:54:00,
2013-01-29 06:09:00,62.1,61.0,30.12,East,82,3.0,7.0,96,0.00,,,0.00,weatherlink.com 1.10,2013-01-29 12:09:00,
2013-01-29 06:24:00,61.9,61.0,30.12,East,92,2.0,6.0,96,0.00,,,0.00,weatherlink.com 1.10,2013-01-29 12:24:00,
2013-01-29 06:39:00,61.7,61.0,30.12,East,84,3.0,6.0,97,0.00,,,0.00,weatherlink.com 1.10,2013-01-29 12:39:00,
2013-01-29 06:54:00,61.7,61.0,30.12,SSE,150,1.0,7.0,97,0.00,,,0.00,weatherlink.com 1.10,2013-01-29 12:54:00,
2013-01-29 07:09:00,61.8,61.0,30.12,ENE,67,2.0,7.0,96,0.00,,,0.00,weatherlink.com 1.10,2013-01-29 13:09:00,
2013-01-29 07:24:00,62.0,61.0,30.13,East,97,4.0,8.0,96,0.00,,,0.00,weatherlink.com 1.10,2013-01-29 13:24:00,
2013-01-29 07:39:00,62.6,61.0,30.12,ENE,71,4.0,8.0,95,0.00,,,0.00,weatherlink.com 1.10,2013-01-29 13:39:00,
2013-01-29 07:54:00,63.4,62.0,30.12,ESE,110,2.0,6.0,94,0.00,,,0.00,weatherlink.com 1.10,2013-01-29 13:54:00,
2013-01-29 08:09:00,63.9,62.0,30.12,ENE,73,4.0,7.0,92,0.00,,,0.00,weatherlink.com 1.10,2013-01-29 14:09:00,
2013-01-29 08:24:00,64.5,62.0,30.12,ESE,105,1.0,6.0,91,0.00,,,0.00,weatherlink.com 1.10,2013-01-29 14:24:00,
2013-01-29 08:39:00,65.6,62.0,30.12,SE,126,2.0,9.0,89,0.00,,,0.00,weatherlink.com 1.10,2013-01-29 14:39:00,
2013-01-29 08:54:00,66.5,63.0,30.12,ENE,74,4.0,8.0,88,0.00,,,0.00,weatherlink.com 1.10,2013-01-29 14:54:00,
2013-01-29 09:10:00,67.2,63.0,30.12,ENE,77,3.0,8.0,87,0.00,,,0.00,weatherlink.com 1.10,2013-01-29 15:10:00,
2013-01-29 09:25:00,68.3,64.0,30.12,ENE,71,7.0,9.0,85,0.00,,,0.00,weatherlink.com 1.10,2013-01-29 15:25:00,
2013-01-29 09:40:00,69.9,64.0,30.11,WSW,245,3.0,10.0,82,0.00,,,0.00,weatherlink.com 1.10,2013-01-29 15:40:00,
2013-01-29 09:55:00,71.7,65.0,30.11,ENE,64,3.0,10.0,80,0.00,,,0.00,weatherlink.com 1.10,2013-01-29 15:55:00,
2013-01-29 10:10:00,72.4,66.0,30.11,East,79,7.0,9.0,80,0.00,,,0.00,weatherlink.com 1.10,2013-01-29 16:10:00,
2013-01-29 10:25:00,73.5,66.0,30.11,SE,142,8.0,16.0,78,0.00,,,0.00,weatherlink.com 1.10,2013-01-29 16:25:00,
2013-01-29 10:40:00,73.0,66.0,30.10,East,93,5.0,13.0,79,0.00,,,0.00,weatherlink.com 1.10,2013-01-29 16:40:00,
2013-01-29 10:55:00,73.4,67.0,30.10,ENE,65,10.0,10.0,79,0.00,,,0.00,weatherlink.com 1.10,2013-01-29 16:55:00,
2013-01-29 11:10:00,73.9,67.0,30.09,ENE,75,5.0,8.0,78,0.00,,,0.00,weatherlink.com 1.10,2013-01-29 17:10:00,
2013-01-29 11:25:00,74.1,66.0,30.08,SE,132,3.0,9.0,77,0.00,,,0.00,weatherlink.com 1.10,2013-01-29 17:25:00,
2013-01-29 11:40:00,74.0,67.0,30.07,SSE,148,4.0,11.0,78,0.00,,,0.00,weatherlink.com 1.10,2013-01-29 17:40:00,
2013-01-29 11:55:00,73.6,67.0,30.06,East,94,4.0,14.0,79,0.00,,,0.00,weatherlink.com 1.10,2013-01-29 17:55:00,
2013-01-29 12:10:00,73.8,67.0,30.05,East,82,9.0,15.0,78,0.00,,,0.00,weatherlink.com 1.10,2013-01-29 18:10:00,
2013-01-29 12:25:00,74.5,67.0,30.04,East,96,14.0,16.0,77,0.00,,,0.00,weatherlink.com 1.10,2013-01-29 18:25:00,
2013-01-29 12:40:00,74.6,67.0,30.03,SSE,158,3.0,9.0,76,0.00,,,0.00,weatherlink.com 1.10,2013-01-29 18:40:00,
2013-01-29 12:55:00,74.6,67.0,30.02,ENE,59,5.0,10.0,77,0.00,,,0.00,weatherlink.com 1.10,2013-01-29 18:55:00,
2013-01-29 13:10:00,74.9,67.0,30.02,NE,49,2.0,8.0,76,0.00,,,0.00,weatherlink.com 1.10,2013-01-29 19:10:00,
2013-01-29 13:25:00,75.1,67.0,30.00,East,84,8.0,12.0,75,0.00,,,0.00,weatherlink.com 1.10,2013-01-29 19:25:00,
2013-01-29 13:40:00,75.2,67.0,30.00,SSE,159,5.0,10.0,76,0.00,,,0.00,weatherlink.com 1.10,2013-01-29 19:40:00,
2013-01-29 13:55:00,74.9,67.0,29.99,ENE,66,9.0,10.0,77,0.00,,,0.00,weatherlink.com 1.10,2013-01-29 19:55:00,
2013-01-29 14:10:00,74.9,67.0,29.99,ESE,119,5.0,10.0,77,0.00,,,0.00,weatherlink.com 1.10,2013-01-29 20:10:00,
2013-01-29 14:25:00,74.9,67.0,29.98,East,88,7.0,15.0,77,0.00,,,0.00,weatherlink.com 1.10,2013-01-29 20:25:00,
2013-01-29 14:40:00,75.5,67.0,29.98,ENE,77,8.0,12.0,75,0.00,,,0.00,weatherlink.com 1.10,2013-01-29 20:40:00,
2013-01-29 14:56:00,75.4,67.0,29.98,ESE,113,2.0,13.0,75,0.00,,,0.00,weatherlink.com 1.10,2013-01-29 20:56:00,
2013-01-29 15:11:00,75.2,67.0,29.98,SE,134,1.0,9.0,75,0.00,,,0.00,weatherlink.com 1.10,2013-01-29 21:11:00,
2013-01-29 15:26:00,74.6,67.0,29.98,ESE,103,10.0,12.0,76,0.00,,,0.00,weatherlink.com 1.10,2013-01-29 21:26:00,
2013-01-29 15:41:00,74.1,67.0,29.98,East,95,6.0,9.0,78,0.00,,,0.00,weatherlink.com 1.10,2013-01-29 21:41:00,
2013-01-29 15:56:00,72.6,67.0,29.98,East,100,2.0,4.0,82,0.00,,,0.00,weatherlink.com 1.10,2013-01-29 21:56:00,
2013-01-29 16:11:00,72.4,67.0,29.98,ENE,77,2.0,6.0,83,0.00,,,0.00,weatherlink.com 1.10,2013-01-29 22:11:00,
2013-01-29 16:26:00,72.4,67.0,29.98,ESE,105,3.0,6.0,83,0.00,,,0.00,weatherlink.com 1.10,2013-01-29 22:26:00,
2013-01-29 16:41:00,72.3,67.0,29.98,SE,135,2.0,8.0,83,0.00,,,0.00,weatherlink.com 1.10,2013-01-29 22:41:00,
2013-01-29 16:56:00,71.9,67.0,29.98,SE,146,5.0,11.0,84,0.00,,,0.00,weatherlink.com 1.10,2013-01-29 22:56:00,
2013-01-29 17:11:00,70.4,67.0,29.97,ESE,113,5.0,7.0,89,0.00,,,0.00,weatherlink.com 1.10,2013-01-29 23:11:00,
2013-01-29 17:26:00,70.0,67.0,29.97,ENE,75,3.0,9.0,89,0.00,,,0.00,weatherlink.com 1.10,2013-01-29 23:26:00,
2013-01-29 17:41:00,69.8,67.0,29.97,ESE,105,6.0,10.0,89,0.00,,,0.00,weatherlink.com 1.10,2013-01-29 23:41:00,
2013-01-29 17:56:00,69.9,67.0,29.97,East,98,4.0,10.0,89,0.00,,,0.00,weatherlink.com 1.10,2013-01-29 23:56:00,
2013-01-29 18:11:00,69.9,67.0,29.97,East,82,4.0,8.0,89,0.00,,,0.00,weatherlink.com 1.10,2013-01-30 00:11:00,
2013-01-29 18:26:00,70.0,67.0,29.96,East,92,4.0,10.0,89,0.00,,,0.00,weatherlink.com 1.10,2013-01-30 00:26:00,
2013-01-29 18:41:00,69.9,67.0,29.96,SSW,201,1.0,13.0,89,0.00,,,0.00,weatherlink.com 1.10,2013-01-30 00:41:00,
2013-01-29 18:56:00,69.7,67.0,29.96,East,94,4.0,8.0,90,0.00,,,0.00,weatherlink.com 1.10,2013-01-30 00:56:00,
2013-01-29 19:11:00,69.7,67.0,29.96,SSE,151,2.0,11.0,90,0.00,,,0.00,weatherlink.com 1.10,2013-01-30 01:11:00,
2013-01-29 19:26:00,69.6,67.0,29.96,East,80,5.0,9.0,90,0.00,,,0.00,weatherlink.com 1.10,2013-01-30 01:26:00,
2013-01-29 19:41:00,69.5,67.0,29.96,SE,134,6.0,7.0,91,0.00,,,0.00,weatherlink.com 1.10,2013-01-30 01:41:00,
2013-01-29 19:56:00,69.4,67.0,29.96,ESE,121,3.0,9.0,91,0.00,,,0.00,weatherlink.com 1.10,2013-01-30 01:56:00,
2013-01-29 20:11:00,69.2,67.0,29.95,ESE,108,10.0,10.0,92,0.00,,,0.00,weatherlink.com 1.10,2013-01-30 02:11:00,
2013-01-29 20:26:00,68.9,67.0,29.95,East,96,5.0,6.0,93,0.00,,,0.00,weatherlink.com 1.10,2013-01-30 02:26:00,
2013-01-29 20:41:00,68.7,67.0,29.95,SE,146,2.0,10.0,94,0.00,,,0.00,weatherlink.com 1.10,2013-01-30 02:41:00,
2013-01-29 20:56:00,68.3,67.0,29.94,North,11,7.0,11.0,95,0.01,,,0.01,weatherlink.com 1.10,2013-01-30 02:56:00,
2013-01-29 21:11:00,68.3,67.0,29.94,SW,214,3.0,12.0,96,0.01,,,0.01,weatherlink.com 1.10,2013-01-30 03:11:00,
2013-01-29 21:26:00,68.3,67.0,29.94,ENE,67,3.0,9.0,96,0.01,,,0.01,weatherlink.com 1.10,2013-01-30 03:26:00,
2013-01-29 21:41:00,68.4,67.0,29.95,East,86,3.0,11.0,96,0.02,,,0.02,weatherlink.com 1.10,2013-01-30 03:41:00,
2013-01-29 21:56:00,68.4,68.0,29.95,ENE,62,2.0,8.0,97,0.01,,,0.02,weatherlink.com 1.10,2013-01-30 03:56:00,
2013-01-29 22:11:00,68.4,68.0,29.94,ESE,115,5.0,12.0,97,0.01,,,0.02,weatherlink.com 1.10,2013-01-30 04:11:00,
2013-01-29 22:26:00,68.5,68.0,29.92,ENE,65,6.0,12.0,97,0.02,,,0.03,weatherlink.com 1.10,2013-01-30 04:26:00,
2013-01-29 22:41:00,68.8,68.0,29.92,East,79,6.0,14.0,97,0.01,,,0.03,weatherlink.com 1.10,2013-01-30 04:41:00,
2013-01-29 22:56:00,69.0,68.0,29.92,SSW,200,2.0,11.0,96,0.01,,,0.03,weatherlink.com 1.10,2013-01-30 04:56:00,
2013-01-29 23:11:00,69.3,68.0,29.92,SE,126,4.0,12.0,96,0.01,,,0.03,weatherlink.com 1.10,2013-01-30 05:11:00,
2013-01-29 23:26:00,69.4,68.0,29.91,ENE,62,4.0,12.0,96,0.00,,,0.03,weatherlink.com 1.10,2013-01-30 05:26:00,
2013-01-29 23:41:00,69.5,68.0,29.90,East,89,3.0,11.0,96,0.00,,,0.03,weatherlink.com 1.10,2013-01-30 05:41:00,
2013-01-29 23:56:00,69.6,69.0,29.90,ESE,114,3.0,12.0,96,0.00,,,0.03,weatherlink.com 1.10,2013-01-30 05:56:00,